Location: Cutler
(25.6150°N, 80.3110°W)
Time: 16:02:06
(UTC-04:00)

Cosmos 2360 Rocket - Visible Passes

Search period start: 23 June 2018 00:00
Search period end: 03 July 2018 00:00
Orbit: 834 x 845 km, 71.0° (Epoch: 22 June)

Date Brightness Start Highest point End Pass type
(mag) Time Alt. Az. Time Alt. Az. Time Alt. Az.
25 Jun 2.4 06:01:45 10° SSW 06:07:20 79° ESE 06:12:57 10° NNE visible
26 Jun 2.4 05:46:05 10° S 05:51:40 73° ESE 05:57:15 10° NNE visible
27 Jun 2.5 05:30:26 10° S 05:35:58 67° ESE 05:41:33 10° NNE visible
28 Jun 2.6 05:14:54 11° S 05:20:17 62° ESE 05:25:50 10° NNE visible
29 Jun 2.7 05:00:14 16° S 05:04:37 57° ESE 05:10:06 10° NNE visible
30 Jun 2.8 04:45:31 22° S 04:48:56 52° ESE 04:54:22 10° NNE visible
01 Jul 2.9 04:30:43 29° SSE 04:33:15 48° ESE 04:38:38 10° NNE visible
02 Jul 3.0 04:15:53 35° SSE 04:17:34 44° ESE 04:22:53 10° NNE visible
02 Jul 3.8 05:58:04 10° WSW 06:01:40 17° WNW 06:05:18 10° NNW visible
